Fort Stockton, TX

1:55 AM CDT on June 26, 2017 (GMT -0500)
Fort Stockton-Pecos County

Weather History for KFST - October, 2012

Change the Weather History Date:

Thursday, October 18, 2012

  Actual Average Record
Temperature  
Mean Temperature 66 °F -  
Max Temperature 78 °F 76 °F 93 °F (2001)
Min Temperature 53 °F 52 °F 39 °F (1999)
Growing Degree Days 16 (Base 50)    
Moisture  
Dew Point 38 °F    
Average Humidity 38    
Maximum Humidity 62    
Minimum Humidity 21    
Precipitation  
Precipitation 0.00 in - - ()
Sea Level Pressure  
Sea Level Pressure 29.87 in    
Wind  
Wind Speed 8 mph (ESE)    
Max Wind Speed 13 mph    
Max Gust Speed -    
Visibility 10 miles    
Events      
Averages and records for this station are not official NWS values.
T = Trace of Precipitation, MM = Missing Value Source: NWS Daily Summary

Daily Weather History Graph

Daily Weather History Graph

Search for Another Location

Airport or City:

Trip Planner

Search our weather history database for the weather conditions in past years. The results will help you decide how hot, cold, wet, or windy it might be!

Date:

Astronomy

Oct. 18, 2012 Rise Set
Actual Time 7:56 AM CDT 7:16 PM CDT
Civil Twilight 7:32 AM CDT 7:40 PM CDT
Nautical Twilight 7:04 AM CDT 8:08 PM CDT
Astronomical Twilight 6:36 AM CDT 8:36 PM CDT
Moon 11:27 AM CDT (10/18) 10:06 PM CDT (10/18)
Length of Visible Light 12h 08m
Length of Day
11h 19m
Waxing Crescent, 14% of the Moon is Illuminated
Oct 18
Waxing Crescent
Oct 21
First Quarter
Oct 29
Full
Nov 6
Last Quarter
Nov 13
New

Hourly Weather History & Observations

Time (CDT) Temp. Dew Point Humidity Pressure Visibility Wind Dir Wind Speed Gust Speed Precip Events Conditions
12:53 AM 66.0 °F 34.0 °F 30% 29.73 in 10.0 mi SW 12.7 mph - N/A   Clear
1:53 AM 64.9 °F 33.1 °F 31% 29.73 in 10.0 mi SW 12.7 mph - N/A   Clear
2:53 AM 64.0 °F 34.0 °F 33% 29.74 in 10.0 mi SW 11.5 mph - N/A   Clear
3:53 AM 64.0 °F 34.0 °F 33% 29.75 in 10.0 mi North 9.2 mph - N/A   Clear
4:53 AM 59.0 °F 37.0 °F 44% 29.76 in 10.0 mi WSW 6.9 mph - N/A   Clear
5:53 AM 55.0 °F 37.0 °F 51% 29.80 in 10.0 mi Calm Calm - N/A   Clear
6:53 AM 57.0 °F 37.0 °F 47% 29.83 in 10.0 mi North 5.8 mph - N/A   Clear
7:53 AM 53.1 °F 39.9 °F 61% 29.87 in 10.0 mi ENE 3.5 mph - N/A   Clear
8:53 AM 54.0 °F 41.0 °F 62% 29.92 in 10.0 mi Calm Calm - N/A   Clear
9:53 AM 62.1 °F 41.0 °F 46% 29.95 in 10.0 mi SE 5.8 mph - N/A   Clear
10:53 AM 64.0 °F 42.1 °F 45% 29.96 in 10.0 mi South 4.6 mph - N/A   Clear
11:53 AM 66.9 °F 42.1 °F 40% 29.96 in 10.0 mi SSE 5.8 mph - N/A   Clear
12:53 PM 70.0 °F 39.9 °F 33% 29.94 in 10.0 mi Variable 4.6 mph - N/A   Clear
1:53 PM 73.0 °F 42.1 °F 33% 29.93 in 10.0 mi Calm Calm - N/A   Clear
2:53 PM 75.9 °F 39.0 °F 26% 29.90 in 10.0 mi Calm Calm - N/A   Clear
3:53 PM 78.1 °F 42.1 °F 28% 29.87 in 10.0 mi NNE 9.2 mph - N/A   Clear
4:53 PM 78.1 °F 39.0 °F 25% 29.87 in 10.0 mi NNE 4.6 mph - N/A   Clear
5:53 PM 77.0 °F 34.0 °F 21% 29.87 in 10.0 mi NE 5.8 mph - N/A   Clear
6:53 PM 73.0 °F 37.0 °F 27% 29.87 in 10.0 mi ENE 6.9 mph - N/A   Clear
7:53 PM 64.9 °F 37.9 °F 37% 29.90 in 10.0 mi East 6.9 mph - N/A   Clear
8:53 PM 64.9 °F 37.0 °F 36% 29.93 in 10.0 mi East 6.9 mph - N/A   Clear
9:53 PM 62.1 °F 37.9 °F 41% 29.93 in 10.0 mi East 5.8 mph - N/A   Clear
10:53 PM 62.1 °F 37.9 °F 41% 29.94 in 10.0 mi SE 6.9 mph - N/A   Clear
11:53 PM 59.0 °F 39.0 °F 48% 29.95 in 10.0 mi SE 8.1 mph - N/A   Clear